User: anonymous   Login
Location: Unspecified
(0.0000°N, 0.0000°E)
Time: 17:26:42
(UTC+00:00)
Language:

STRAND 1 - Orbit

View from above orbital plane
View from above orbital plane
View from above satellite
View from above satellite

Ground track
Ground track

The orbit data is extracted from the following two-line orbital elements,

1 39090U 13009E   18018.54848624 +.00000028 +00000-0 +25232-4 0  9991
2 39090 098.5334 226.7491 0009711 027.7620 332.4082 14.35007231256346
Epoch (UTC): 18 January 2018 13:09:49
Eccentricity: 0.0009711
inclination: 98.5334°
perigee height: 768 km
apogee height: 782 km
right ascension of ascending node: 226.7491°
argument of perigee: 27.7620°
revolutions per day: 14.35007231
mean anomaly at epoch: 332.4082°
orbit number at epoch: 25634

The dashed part of the orbit path shows where the satellite is in the earth's shadow,  

DLR